When you browse on this site, cookies collect data to enhance your experience and personalize the content and advertising you see.
Visit our Privacy Policy to learn more. By continuing to use the site, you agree to this use of cookies and data.
  • In Hungary
  • List of Countries
  • For 7 days
  • Water Temperature
  • Weather Map
  • News
  • Weather Widgets
  • user-avatar
    Login

    Hourly Weather Daegu

    Today, 6 December, Friday

    Time Temperature Precipitation Wind Pressure Humidity
    00:00 -6°C° 0 mm 3 mps 771 mmHg 51%
    01:00 -5°C° 0 mm 2 mps 771 mmHg 47%
    02:00 -5°C° 0 mm 2 mps 771 mmHg 43%
    03:00 -5°C° 0 mm 2 mps 771 mmHg 40%
    04:00 -5°C° 0 mm 2 mps 772 mmHg 38%
    05:00 -5°C° 0 mm 2 mps 772 mmHg 36%
    06:00 -5°C° 0 mm 2 mps 772 mmHg 34%
    07:00 -5°C° 0 mm 2 mps 772 mmHg 32%
    08:00 -4°C° 0 mm 2 mps 772 mmHg 29%
    09:00 -5°C° 0 mm 3 mps 772 mmHg 26%
    10:00 -4°C° 0 mm 3 mps 771 mmHg 22%
    11:00 -1°C° 0 mm 3 mps 771 mmHg 19%
    12:00 0°C° 0 mm 3 mps 770 mmHg 16%
    13:00 0°C° 0 mm 3 mps 770 mmHg 16%
    14:00 0°C° 0 mm 3 mps 769 mmHg 16%
    15:00 +1°C° 0 mm 3 mps 768 mmHg 16%
    16:00 +1°C° 0 mm 2 mps 768 mmHg 20%
    17:00 -2°C° 0 mm 2 mps 769 mmHg 23%
    18:00 -1°C° 0 mm 1 mps 769 mmHg 27%
    19:00 -1°C° 0 mm 1 mps 769 mmHg 29%
    20:00 -2°C° 0 mm 1 mps 769 mmHg 31%
    21:00 -2°C° 0 mm 1 mps 768 mmHg 33%
    22:00 -2°C° 0 mm 1 mps 768 mmHg 34%
    23:00 -2°C° 0 mm 1 mps 768 mmHg 36%

    Tomorrow, 7 December, Saturday

    Time Temperature Precipitation Wind Pressure Humidity
    00:00 -3°C° 0 mm 1 mps 768 mmHg 38%
    01:00 -3°C° 0 mm 1 mps 768 mmHg 38%
    02:00 -3°C° 0 mm 1 mps 767 mmHg 38%
    03:00 -3°C° 0 mm 1 mps 767 mmHg 39%
    04:00 -3°C° 0 mm 1 mps 767 mmHg 41%
    05:00 -3°C° 0 mm 1 mps 767 mmHg 44%
    06:00 -2°C° 0 mm 1 mps 767 mmHg 47%
    07:00 -1°C° 0 mm 1 mps 767 mmHg 47%
    08:00 0°C° 0 mm 1 mps 767 mmHg 48%
    09:00 0°C° 0 mm 1 mps 767 mmHg 49%
    10:00 +2°C° 0 mm 1 mps 767 mmHg 49%
    11:00 +3°C° 0 mm 2 mps 767 mmHg 49%
    12:00 +4°C° 0 mm 2 mps 766 mmHg 50%
    13:00 +5°C° 0 mm 2 mps 766 mmHg 50%
    14:00 +4°C° 0 mm 3 mps 765 mmHg 51%
    15:00 +5°C° 0 mm 3 mps 764 mmHg 51%
    16:00 +4°C° 0 mm 2 mps 765 mmHg 59%
    17:00 +3°C° 0 mm 2 mps 765 mmHg 66%
    18:00 +2°C° 0 mm 1 mps 765 mmHg 73%
    19:00 +2°C° 0 mm 1 mps 765 mmHg 77%
    20:00 +1°C° 0 mm 1 mps 765 mmHg 80%
    21:00 +1°C° 0 mm 1 mps 765 mmHg 83%
    22:00 +1°C° 0 mm 1 mps 765 mmHg 85%
    23:00 +1°C° 0 mm 1 mps 765 mmHg 87%

    Day after tomorrow, 8 December, Sunday

    Time Temperature Precipitation Wind Pressure Humidity
    00:00 +1°C° 0 mm 1 mps 765 mmHg 89%
    01:00 0°C° 0 mm 1 mps 765 mmHg 90%
    02:00 0°C° 0 mm 1 mps 765 mmHg 90%
    03:00 0°C° 0 mm 1 mps 766 mmHg 91%
    04:00 0°C° 0 mm 1 mps 765 mmHg 90%
    05:00 -1°C° 0 mm 1 mps 765 mmHg 89%
    06:00 -1°C° 0 mm 1 mps 765 mmHg 88%
    07:00 0°C° 0 mm 1 mps 766 mmHg 82%
    08:00 +1°C° 0 mm 1 mps 766 mmHg 76%
    09:00 +2°C° 0 mm 1 mps 766 mmHg 70%
    10:00 +3°C° 0 mm 1 mps 766 mmHg 61%
    11:00 +5°C° 0 mm 1 mps 765 mmHg 51%
    12:00 +7°C° 0 mm 1 mps 765 mmHg 42%
    13:00 +7°C° 0 mm 1 mps 765 mmHg 41%
    14:00 +7°C° 0 mm 1 mps 764 mmHg 41%
    15:00 +8°C° 0 mm 1 mps 764 mmHg 40%
    16:00 +6°C° 0 mm 1 mps 764 mmHg 46%
    17:00 +3°C° 0 mm 0 mps 764 mmHg 52%
    18:00 +1°C° 0 mm 0 mps 764 mmHg 58%
    19:00 +1°C° 0 mm 0 mps 764 mmHg 59%
    20:00 +1°C° 0 mm 0 mps 765 mmHg 60%
    21:00 0°C° 0 mm 0 mps 765 mmHg 62%
    22:00 0°C° 0 mm 0 mps 764 mmHg 63%
    23:00 0°C° 0 mm 0 mps 764 mmHg 64%

    9 December, Monday

    Time Temperature Precipitation Wind Pressure Humidity
    00:00 0°C° 0 mm 0 mps 764 mmHg 65%
    01:00 -1°C° 0 mm 0 mps 764 mmHg 66%
    02:00 -1°C° 0 mm 0 mps 764 mmHg 66%
    03:00 -1°C° 0 mm 0 mps 764 mmHg 67%
    04:00 -1°C° 0 mm 0 mps 764 mmHg 67%
    05:00 -1°C° 0 mm 0 mps 763 mmHg 67%
    06:00 -1°C° 0 mm 0 mps 763 mmHg 67%
    07:00 0°C° 0 mm 0 mps 763 mmHg 62%
    08:00 +1°C° 0 mm 0 mps 763 mmHg 58%
    09:00 +2°C° 0 mm 0 mps 764 mmHg 54%
    10:00 +4°C° 0 mm 0 mps 763 mmHg 49%
    11:00 +6°C° 0 mm 1 mps 763 mmHg 43%
    12:00 +8°C° 0 mm 1 mps 763 mmHg 38%
    13:00 +9°C° 0 mm 1 mps 762 mmHg 38%
    14:00 +9°C° 0 mm 1 mps 762 mmHg 38%
    15:00 +9°C° 0 mm 1 mps 762 mmHg 38%
    16:00 +6°C° 0 mm 0 mps 762 mmHg 43%
    17:00 +5°C° 0 mm 0 mps 762 mmHg 48%
    18:00 +3°C° 0 mm 0 mps 762 mmHg 54%
    19:00 +3°C° 0 mm 0 mps 762 mmHg 55%
    20:00 +2°C° 0 mm 0 mps 762 mmHg 56%
    21:00 +2°C° 0 mm 0 mps 762 mmHg 57%
    22:00 +2°C° 0 mm 0 mps 762 mmHg 58%
    23:00 +2°C° 0 mm 0 mps 762 mmHg 58%

    10 December, Tuesday

    Time Temperature Precipitation Wind Pressure Humidity
    00:00 +2°C° 0 mm 0 mps 762 mmHg 59%
    01:00 +1°C° 0 mm 0 mps 761 mmHg 61%
    02:00 +1°C° 0 mm 0 mps 761 mmHg 62%
    03:00 +1°C° 0 mm 0 mps 761 mmHg 64%
    04:00 +1°C° 0 mm 0 mps 761 mmHg 66%
    05:00 +1°C° 0 mm 0 mps 761 mmHg 67%
    06:00 +1°C° 0 mm 0 mps 760 mmHg 69%
    07:00 +2°C° 0 mm 0 mps 760 mmHg 68%
    08:00 +3°C° 0 mm 0 mps 761 mmHg 66%
    09:00 +4°C° 0 mm 0 mps 761 mmHg 65%
    10:00 +7°C° 0 mm 1 mps 760 mmHg 62%
    11:00 +9°C° 0 mm 1 mps 760 mmHg 59%
    12:00 +11°C° 0 mm 1 mps 760 mmHg 56%
    13:00 +12°C° 0 mm 1 mps 759 mmHg 57%
    14:00 +12°C° 0 mm 1 mps 759 mmHg 58%
    15:00 +13°C° 0 mm 1 mps 759 mmHg 59%
    16:00 +11°C° 0 mm 1 mps 759 mmHg 67%
    17:00 +9°C° 0 mm 1 mps 758 mmHg 74%
    18:00 +8°C° 0 mm 1 mps 758 mmHg 82%
    19:00 +7°C° 0 mm 1 mps 759 mmHg 84%
    20:00 +7°C° 0 mm 1 mps 759 mmHg 86%
    21:00 +6°C° 0 mm 0 mps 759 mmHg 88%
    22:00 +6°C° 0 mm 0 mps 759 mmHg 89%
    23:00 +5°C° 0 mm 0 mps 759 mmHg 89%

    11 December, Wednesday

    Time Temperature Precipitation Wind Pressure Humidity
    00:00 +5°C° 0 mm 0 mps 759 mmHg 90%
    01:00 +5°C° 0 mm 0 mps 758 mmHg 90%
    02:00 +5°C° 0 mm 0 mps 758 mmHg 90%
    03:00 +5°C° 0 mm 0 mps 758 mmHg 90%
    04:00 +5°C° 0 mm 0 mps 758 mmHg 91%
    05:00 +5°C° 0 mm 0 mps 758 mmHg 91%
    06:00 +4°C° 0 mm 0 mps 758 mmHg 92%
    07:00 +6°C° 0 mm 1 mps 758 mmHg 86%
    08:00 +6°C° 0 mm 1 mps 759 mmHg 81%
    09:00 +7°C° 0 mm 1 mps 759 mmHg 75%
    10:00 +7°C° 0 mm 2 mps 759 mmHg 65%
    11:00 +8°C° 0 mm 2 mps 759 mmHg 54%
    12:00 +9°C° 0 mm 3 mps 759 mmHg 44%
    13:00 +9°C° 0 mm 3 mps 759 mmHg 45%
    14:00 +8°C° 0 mm 4 mps 758 mmHg 45%
    15:00 +8°C° 0 mm 4 mps 758 mmHg 46%
    16:00 +6°C° 0 mm 4 mps 759 mmHg 53%
    17:00 +5°C° 0 mm 3 mps 759 mmHg 60%
    18:00 +4°C° 0 mm 3 mps 759 mmHg 67%
    19:00 +4°C° 0 mm 2 mps 760 mmHg 70%
    20:00 +4°C° 0 mm 2 mps 760 mmHg 73%
    21:00 +4°C° 0 mm 1 mps 761 mmHg 76%
    22:00 +4°C° 0 mm 1 mps 761 mmHg 77%
    23:00 +4°C° 0 mm 1 mps 761 mmHg 78%
    Show more